Probability
81 84 84 84 68 68 71 77 65 65 58 48 48 29 42 39 35 52 87 87 81 100 97 97 97 94 100 97 100 100 97 100 100 100 100 97 87 84 81 81 84 81 81
77 68 55 65 55 55 52 61 48 55 45 48 35 26 32 29 29 55 61 81 68 84 87 87 90 90 90 90 94 94 97 100 100 100 100 97 97 87 84 81 84 90 84
71 58 45 48 42 48 61 61 45 45 42 26 19 26 23 16 19 23 39 55 61 77 84 84 94 94 87 84 87 90 94 97 100 100 100 100 100 97 87 87 87 87 84
45 42 35 26 32 32 32 32 39 32 23 16 23 29 23 26 13 13 19 29 55 52 65 71 74 87 87 87 84 84 94 94 97 100 100 97 94 90 90 87 84 87 84
32 26 23 19 23 23 19 10 16 16 10 10 10 6 16 16 13 10 6 19 29 42 52 58 68 68 68 71 77 84 87 97 97 97 97 94 97 81 87 87 87 84 74
13 16 16 13 16 13 13 6 19 13 3 3 3 3 3 13 13 16 10 13 16 19 26 19 61 61 65 71 77 77 81 94 90 94 94 97 97 94 84 84 77 81 61
19 13 10 16 13 10 10 3 3 6 6 6 0 10 13 3 10 13 13 13 6 10 13 32 35 48 58 45 48 58 74 71 94 90 90 94 97 90 84 81 68 65 52
13 6 13 10 10 16 10 10 10 6 3 0 6 0 0 3 0 0 3 10 6 10 16 13 32 32 32 35 42 42 55 61 61 84 90 87 87 90 90 81 65 52 42
10 10 10 6 6 10 10 10 10 3 3 3 3 0 0 0 0 0 0 0 3 3 3 3 0 23 35 32 48 32 48 45 58 61 74 87 81 77 71 77 71 55 45
10 10 6 6 6 6 6 6 3 3 3 3 0 0 0 0 0 0 0 0 0 0 0 0 0 3 13 26 29 16 10 13 19 52 65 74 71 65 58 65 65 68 52
6 3 13 10 10 3 3 0 0 3 3 3 0 0 0 0 0 0 0 0 0 0 0 0 0 0 0 6 29 13 6 3 3 13 35 48 55 52 45 42 48 65 71
3 0 0 6 6 0 3 0 0 3 0 0 0 0 0 0 0 0 0 0 0 0 0 0 0 0 0 0 0 0 0 0 0 0 6 19 23 48 35 45 42 45 48
0 3 0 0 0 0 0 0 0 0 0 0 0 0 0 0 0 0 0 0 0 0 0 0 0 0 0 0 3 0 0 0 0 0 0 0 3 10 13 19 32 35 32
0 0 0 0 0 0 0 0 0 0 0 0 0 0 0 0 0 0 0 0 0 0 0 0 0 0 0 0 0 0 0 0 0 0 0 0 0 0 0 0 3 13 16
0 0 0 0 0 0 0 0 0 0 0 0 0 0 0 0 0 0 0 0 0 0 0 0 0 0 0 0 0 0 0 0 0 0 0 0 0 0 0 0 0 0 3
0 0 0 0 0 0 0 0 0 0 0 0 0 0 0 0 0 0 0 0 0 0 0 0 0 0 0 0 0 0 0 0 0 0 0 0 0 0 0 0 0 0 0
0 0 0 0 0 0 0 0 0 0 0 0 0 0 0 0 0 0 0 0 0 0 0 0 0 0 0 0 0 0 0 0 0 0 0 0 0 0 0 0 0 0 0
0 0 0 0 0 0 0 0 0 0 0 0 0 0 0 0 0 0 0 0 0 0 0 0 0 0 0 0 0 0 0 0 0 0 0 0 0 0 0 0 0 0 0
3 0 0 0 0 0 0 0 0 0 0 0 0 0 0 0 0 0 0 0 0 0 0 0 0 0 0 0 0 0 0 0 0 0 0 0 0 0 0 0 0 0 0
6 3 3 0 0 0 0 0 0 0 0 0 0 0 0 0 0 0 0 0 0 0 3 3 3 0 0 0 0 0 0 0 0 0 0 0 0 0 0 0 0 0 0
6 6 6 3 3 0 0 0 0 0 0 0 0 0 0 0 0 0 0 0 0 0 3 3 3 3 3 0 0 0 0 0 0 0 0 0 0 0 0 0 0 0 0
6 6 6 6 3 0 0 0 0 0 0 0 0 0 0 0 0 0 0 0 0 0 0 0 0 0 0 0 0 0 0 0 0 0 0 0 0 0 0 0 0 0 0
6 6 6 3 6 3 0 0 0 0 0 0 0 0 0 0 0 0 0 0 0 0 0 0 0 0 0 0 0 0 0 0 0 0 0 0 0 0 0 0 0 0 0
6 10 6 6 6 3 0 0 0 0 0 0 0 0 0 0 0 0 0 0 0 0 0 0 0 0 0 0 0 0 0 0 0 0 0 0 0 0 0 0 0 0 0
10 10 6 6 6 3 0 0 0 0 0 0 0 0 0 0 0 0 0 0 0 0 0 0 0 0 0 0 0 0 0 0 0 3 0 0 0 0 0 0 0 0 0
13 3 0 3 3 6 0 0 0 0 0 0 0 0 0 0 0 0 0 0 0 0 0 0 0 0 0 0 0 0 0 0 0 0 0 0 0 0 0 0 0 0 0
Height
5883 5883 5883 5883 5884 5884 5884 5884 5885 5885 5886 5887 5887 5888 5888 5889 5890 5891 5892 5893 5894 5895 5895 5896 5897 5898 5898 5899 5901 5902 5904 5905 5906 5908 5910 5911 5912 5913 5914 5915 5916 5917 5917
5881 5881 5882 5882 5882 5882 5882 5882 5883 5883 5883 5884 5884 5885 5885 5886 5886 5887 5888 5889 5890 5891 5892 5893 5893 5894 5895 5896 5898 5899 5901 5902 5904 5905 5907 5909 5910 5911 5912 5914 5915 5916 5917
5879 5879 5880 5880 5880 5880 5880 5880 5880 5880 5881 5881 5882 5882 5882 5883 5883 5884 5885 5886 5886 5887 5888 5889 5890 5890 5891 5893 5894 5895 5897 5899 5900 5902 5904 5906 5907 5909 5910 5912 5913 5914 5915
5877 5878 5878 5878 5878 5878 5878 5878 5878 5878 5878 5878 5879 5879 5879 5880 5880 5880 5881 5882 5882 5883 5884 5885 5885 5886 5887 5889 5890 5891 5893 5894 5896 5898 5900 5902 5904 5906 5907 5909 5910 5912 5913
5876 5876 5876 5876 5876 5876 5876 5876 5875 5876 5876 5876 5876 5876 5876 5876 5877 5877 5877 5878 5878 5879 5879 5880 5881 5882 5883 5884 5885 5886 5888 5890 5891 5893 5895 5897 5899 5901 5903 5905 5907 5909 5910
5874 5874 5874 5874 5874 5874 5874 5874 5874 5873 5874 5874 5874 5874 5873 5873 5873 5873 5873 5873 5874 5874 5875 5875 5876 5877 5878 5879 5880 5881 5883 5884 5886 5888 5890 5892 5894 5896 5899 5901 5903 5905 5907
5873 5872 5872 5872 5872 5872 5872 5872 5872 5871 5871 5871 5871 5871 5870 5870 5870 5869 5869 5869 5869 5869 5870 5870 5871 5872 5873 5874 5875 5876 5877 5878 5880 5882 5884 5886 5888 5890 5893 5896 5898 5901 5903
5871 5871 5871 5871 5871 5871 5870 5870 5870 5869 5869 5868 5868 5867 5867 5867 5866 5865 5865 5865 5865 5865 5865 5865 5865 5866 5867 5868 5869 5870 5871 5872 5874 5875 5877 5879 5882 5884 5886 5889 5892 5895 5898
5870 5870 5870 5870 5870 5869 5869 5869 5868 5867 5867 5866 5865 5864 5864 5863 5862 5862 5861 5860 5860 5860 5860 5860 5860 5860 5861 5861 5862 5863 5865 5866 5868 5869 5870 5872 5875 5877 5880 5882 5885 5888 5891
5870 5870 5870 5869 5869 5869 5868 5867 5867 5865 5865 5863 5862 5861 5860 5859 5858 5858 5857 5856 5855 5855 5854 5854 5854 5854 5854 5855 5856 5856 5858 5859 5861 5862 5863 5866 5868 5870 5872 5875 5878 5881 5884
5869 5869 5869 5869 5868 5868 5867 5866 5865 5864 5862 5861 5860 5858 5857 5855 5854 5853 5852 5851 5850 5849 5849 5848 5848 5848 5848 5848 5848 5849 5851 5852 5853 5855 5856 5858 5860 5862 5865 5867 5870 5873 5876
5868 5868 5868 5867 5867 5866 5865 5864 5862 5861 5860 5858 5857 5855 5854 5852 5850 5849 5847 5846 5844 5844 5843 5842 5841 5841 5841 5841 5841 5842 5843 5844 5845 5847 5848 5850 5852 5854 5857 5859 5862 5865 5868
5867 5867 5866 5866 5865 5864 5863 5861 5860 5858 5857 5855 5853 5851 5850 5848 5846 5844 5842 5840 5839 5838 5836 5835 5835 5834 5833 5833 5833 5834 5834 5836 5837 5838 5840 5842 5844 5846 5849 5851 5854 5857 5860
5865 5865 5865 5864 5863 5861 5860 5859 5857 5855 5853 5852 5850 5848 5845 5843 5841 5839 5837 5835 5833 5831 5830 5829 5827 5826 5826 5825 5825 5826 5826 5827 5828 5829 5831 5833 5835 5837 5840 5842 5845 5847 5850
5863 5863 5862 5861 5860 5859 5857 5855 5854 5852 5850 5848 5846 5843 5841 5839 5836 5834 5831 5829 5827 5825 5823 5822 5820 5819 5818 5818 5817 5817 5817 5817 5818 5819 5821 5823 5825 5827 5830 5833 5835 5838 5841
5861 5861 5860 5859 5857 5856 5854 5852 5850 5848 5846 5843 5841 5839 5836 5834 5831 5828 5826 5823 5821 5819 5817 5814 5813 5811 5810 5809 5808 5808 5808 5808 5808 5809 5810 5812 5814 5817 5819 5822 5825 5827 5830
5859 5858 5857 5855 5854 5852 5850 5848 5846 5844 5841 5839 5836 5834 5831 5828 5825 5822 5820 5817 5815 5812 5810 5807 5805 5803 5801 5800 5799 5799 5798 5798 5798 5799 5800 5801 5803 5805 5808 5811 5814 5816 5819
5855 5854 5853 5851 5850 5848 5846 5844 5841 5839 5836 5834 5831 5828 5825 5822 5819 5816 5813 5811 5808 5805 5803 5800 5797 5795 5793 5791 5790 5789 5788 5788 5788 5788 5789 5790 5792 5794 5796 5799 5802 5805 5808
5851 5850 5849 5847 5845 5843 5841 5838 5836 5833 5831 5828 5825 5822 5819 5816 5813 5810 5807 5803 5800 5797 5795 5792 5789 5786 5783 5781 5780 5778 5777 5777 5777 5777 5777 5778 5780 5782 5784 5787 5789 5793 5796
5847 5845 5844 5842 5840 5838 5835 5833 5830 5827 5825 5822 5819 5816 5813 5810 5806 5803 5799 5796 5792 5789 5786 5783 5780 5777 5774 5771 5769 5768 5767 5766 5765 5765 5765 5766 5767 5769 5771 5774 5777 5780 5783
5842 5840 5838 5836 5834 5832 5829 5827 5824 5821 5818 5815 5812 5809 5806 5802 5799 5795 5792 5788 5784 5781 5777 5774 5771 5768 5765 5761 5759 5757 5755 5754 5754 5753 5753 5754 5755 5756 5758 5760 5763 5767 5770
5836 5834 5832 5830 5828 5825 5823 5820 5817 5814 5811 5808 5805 5801 5798 5795 5791 5787 5783 5779 5776 5772 5768 5765 5761 5758 5754 5751 5748 5746 5744 5743 5742 5742 5741 5742 5742 5744 5745 5747 5750 5753 5757
5830 5828 5826 5823 5821 5818 5816 5813 5810 5807 5804 5801 5797 5793 5790 5786 5782 5779 5775 5771 5767 5763 5759 5755 5752 5747 5744 5741 5738 5735 5733 5732 5731 5729 5729 5729 5730 5731 5732 5734 5737 5740 5743
5823 5821 5819 5816 5814 5811 5808 5805 5802 5799 5796 5792 5789 5785 5781 5777 5773 5769 5765 5761 5757 5753 5749 5745 5741 5737 5733 5730 5727 5724 5722 5720 5719 5717 5716 5717 5717 5718 5720 5721 5724 5727 5730
5815 5813 5811 5808 5806 5803 5800 5797 5793 5790 5787 5783 5780 5776 5772 5768 5764 5759 5755 5751 5747 5742 5738 5734 5730 5727 5723 5719 5716 5713 5711 5709 5708 5706 5704 5704 5705 5706 5707 5709 5711 5714 5717
5807 5805 5803 5800 5797 5794 5791 5788 5784 5781 5777 5774 5770 5766 5762 5758 5754 5749 5745 5741 5736 5732 5727 5723 5719 5715 5712 5708 5705 5702 5700 5698 5696 5695 5693 5692 5693 5693 5695 5696 5698 5701 5703
Wind_Speed
8 8 8 8 8 9 9 9 9 10 11 11 12 12 13 15 15 15 15 16 16 16 17 17 17 17 16 16 17 18 18 17 16 16 15 15 14 13 13 12 11 10 9
7 7 7 8 8 7 8 8 9 10 10 11 12 12 14 14 15 16 17 16 17 18 19 19 19 19 19 19 19 19 20 20 19 18 18 17 16 15 15 14 13 12 11
7 7 7 8 8 8 8 8 9 9 10 10 11 12 12 13 14 16 17 18 18 19 19 19 20 20 21 21 21 21 22 22 22 21 20 20 19 18 17 16 15 14 13
7 7 8 8 8 9 10 9 9 9 9 10 11 12 12 13 13 15 16 18 18 19 20 21 21 21 22 23 24 23 24 24 24 24 23 23 22 21 20 19 18 17 16
7 7 8 7 8 8 8 9 9 9 10 11 11 12 13 13 14 15 16 17 18 19 20 21 22 23 23 24 25 25 26 27 27 26 26 26 25 25 23 22 21 20 19
6 6 6 6 6 6 6 7 8 9 10 10 11 11 13 14 15 16 17 18 19 20 21 22 23 24 25 25 26 27 27 28 29 29 29 29 29 28 27 26 24 23 22
4 4 5 5 5 6 6 7 7 8 9 10 11 12 13 14 15 15 17 18 20 21 22 23 24 25 26 26 27 28 29 29 29 30 31 31 31 31 31 29 28 26 25
2 2 3 3 3 4 5 6 8 8 9 10 11 12 13 14 15 16 16 18 19 21 22 23 24 25 26 27 28 29 30 31 30 31 32 33 33 32 34 33 32 30 29
2 2 1 1 2 3 5 6 7 8 9 10 11 12 13 14 15 15 16 17 18 20 21 23 24 26 27 28 28 29 30 31 32 32 33 34 34 34 34 36 35 34 32
2 1 1 1 2 4 5 6 7 8 9 10 11 12 14 15 15 16 17 18 18 19 21 22 24 26 27 29 30 30 31 31 32 33 34 35 35 35 35 36 37 37 36
2 2 2 2 3 5 6 7 8 9 10 11 12 13 14 15 16 17 18 19 20 21 21 23 25 26 28 29 30 31 32 33 33 34 35 36 36 36 36 37 38 39 39
1 1 2 3 4 6 7 8 9 10 11 12 13 14 16 16 17 18 19 21 22 23 23 25 26 26 28 29 30 30 32 33 34 35 36 37 37 37 37 37 37 39 40
2 3 4 5 6 8 9 10 11 12 13 14 14 15 17 18 19 19 20 21 22 24 25 26 27 28 29 30 31 31 33 34 35 36 37 38 38 38 38 38 38 39 40
4 4 5 6 8 9 10 11 12 13 14 15 16 17 18 19 20 20 21 22 23 24 25 26 27 28 29 31 32 33 34 35 36 38 39 39 40 41 40 40 41 40 41
6 6 7 8 9 11 12 13 14 14 15 16 18 19 20 20 21 21 22 23 23 24 25 26 27 28 29 30 32 33 34 36 37 38 39 41 42 42 42 42 42 43 43
7 8 9 10 11 13 14 15 15 16 17 18 19 20 21 21 22 22 23 24 24 25 26 27 28 29 30 31 31 33 35 36 37 38 40 42 43 44 45 45 45 45 45
10 11 11 12 13 14 15 16 17 18 19 20 21 21 22 23 23 24 24 25 25 26 27 28 29 30 30 31 32 33 34 36 37 39 41 42 43 44 45 46 47 47 47
13 14 15 15 16 16 17 18 19 20 21 22 22 23 24 24 25 25 26 26 26 27 28 29 30 30 31 32 32 33 34 35 37 39 41 43 44 45 46 46 47 47 47
16 17 17 18 18 19 20 21 21 22 23 24 24 25 26 26 26 27 27 28 28 28 29 30 31 32 33 33 34 34 35 36 37 38 40 42 44 46 47 47 48 48 48
18 19 19 20 21 21 22 22 23 24 25 26 26 27 27 27 28 29 29 30 30 30 30 31 32 33 34 35 35 35 36 36 37 39 40 41 43 45 47 49 49 49 50
21 21 22 23 23 24 24 24 25 26 27 27 28 29 29 29 30 30 31 32 32 32 32 33 33 34 35 36 36 36 36 37 37 39 40 41 42 44 45 47 49 50 51
23 23 24 24 25 25 26 27 27 28 28 29 30 30 31 31 31 32 33 33 34 34 34 34 35 35 36 36 36 36 37 37 37 39 39 40 42 42 44 46 47 49 50
25 25 26 26 27 28 28 29 29 29 30 31 31 32 32 33 33 34 35 35 35 35 36 36 36 37 37 37 37 37 37 37 37 39 39 39 41 42 43 45 46 47 49
26 27 28 28 29 29 30 31 31 31 32 33 33 34 34 35 36 37 37 37 37 37 37 38 38 37 37 38 38 37 37 37 38 38 39 39 40 41 42 44 45 47 48
29 29 30 30 30 31 32 33 34 34 34 35 35 36 36 37 38 38 39 38 39 39 39 39 38 38 38 38 38 37 37 37 37 37 38 39 39 40 41 42 43 44 46
31 31 31 32 32 33 34 35 36 36 36 36 37 38 39 39 40 40 40 40 40 40 40 40 40 39 39 39 38 37 37 37 37 37 38 39 39 39 40 41 42 44 45
Wind_Direction
257 261 260 261 265 264 264 262 259 255 251 252 256 257 255 250 246 245 245 245 244 245 246 248 248 245 241 238 233 228 227 226 227 228 229 229 227 226 226 224 223 220 215
262 267 266 268 273 274 274 274 266 259 252 254 257 256 255 255 250 247 248 249 250 249 249 250 249 248 246 243 238 234 231 230 229 230 231 232 232 231 230 229 227 226 224
264 265 270 275 274 274 275 276 276 270 263 261 262 262 261 261 257 253 252 253 255 253 251 251 251 248 246 246 243 239 237 235 233 232 233 234 234 234 233 232 232 230 228
263 273 279 280 279 277 279 279 281 277 274 273 274 273 271 267 265 259 258 258 258 255 252 252 252 250 249 248 248 245 241 239 237 236 235 235 235 235 234 234 234 234 232
270 279 278 281 281 281 282 281 284 285 283 283 279 276 276 274 271 266 264 262 259 257 255 254 254 252 252 252 250 248 245 242 242 240 237 236 235 235 235 235 235 235 235
272 279 282 285 283 285 289 289 287 285 285 284 281 281 280 278 276 275 270 265 262 261 260 258 257 255 254 252 249 250 249 247 246 244 241 239 236 235 234 235 236 236 236
268 277 286 289 287 289 290 294 295 291 288 288 287 285 282 281 280 277 274 269 266 265 264 262 259 258 256 255 251 250 250 250 250 248 243 241 239 236 235 235 236 236 236
254 282 295 294 297 306 305 303 303 299 295 292 291 290 287 284 281 279 276 273 270 267 266 264 261 259 258 257 255 253 252 251 250 248 245 244 243 240 237 235 235 235 236
229 255 263 316 345 341 328 320 316 311 306 302 297 293 292 290 287 283 280 278 275 271 268 266 264 261 259 259 258 257 255 253 252 251 249 248 245 243 241 238 235 235 236
220 257 285 309 327 330 327 325 321 318 314 310 305 300 297 294 291 288 285 282 278 274 272 269 266 264 262 261 259 257 256 254 254 253 251 249 247 245 244 240 238 236 235
233 274 276 289 310 320 323 322 318 315 313 311 308 306 303 299 294 290 288 285 282 278 275 272 269 267 264 262 260 257 256 255 254 253 252 251 250 247 245 243 241 240 238
210 265 288 307 315 318 319 319 316 313 311 310 308 306 304 301 299 296 292 288 284 281 278 275 273 270 267 264 261 258 257 256 255 254 253 251 251 250 247 246 244 242 241
252 280 295 307 316 318 316 315 314 312 310 310 310 309 306 303 300 298 295 291 287 284 281 278 276 272 270 268 265 262 259 258 256 255 253 252 251 250 249 247 246 244 244
268 284 294 303 311 313 314 315 314 312 311 310 310 310 309 306 304 301 299 295 291 287 284 281 279 276 273 270 267 265 262 259 257 255 253 252 251 250 249 248 247 246 244
275 283 290 298 304 308 312 314 314 313 312 312 311 310 309 307 305 303 301 299 295 292 288 285 282 279 276 273 269 266 264 262 259 257 254 252 251 250 248 248 248 246 245
278 283 290 297 303 307 310 312 313 313 311 311 310 308 308 307 306 305 303 301 298 295 292 289 286 283 280 277 272 268 265 263 261 259 256 254 252 250 249 248 248 248 247
281 287 293 297 301 303 306 309 311 310 310 310 310 310 309 308 307 305 304 302 299 297 295 292 290 287 284 281 277 272 268 265 262 259 257 255 253 252 250 249 248 247 247
280 286 290 294 297 300 303 307 308 309 309 310 310 309 309 308 307 306 304 303 301 299 296 294 292 290 287 284 281 277 272 268 265 262 259 256 255 253 251 250 248 247 246
281 286 289 292 295 298 301 304 305 306 308 309 309 309 308 308 307 307 305 304 302 300 298 296 294 292 289 286 283 280 276 271 267 265 262 259 256 254 252 251 249 247 246
282 286 288 292 294 296 299 301 302 304 306 307 308 308 308 307 307 307 306 305 303 301 300 299 296 294 291 289 286 282 279 274 270 266 264 261 258 255 253 251 250 248 246
284 286 289 291 294 296 298 300 301 303 304 306 306 306 306 307 307 307 306 305 304 302 301 300 299 296 293 291 288 284 281 277 273 269 265 263 260 258 255 253 250 249 247
286 288 290 293 295 296 298 300 301 302 303 304 305 305 305 306 307 307 307 306 305 304 303 301 300 298 295 292 289 286 282 279 275 271 268 264 262 259 256 254 251 249 247
288 290 292 295 297 298 299 300 301 301 302 303 304 304 305 305 306 306 306 305 305 304 303 302 301 299 296 293 290 287 284 280 276 273 270 266 263 260 257 254 251 249 248
289 290 292 294 297 298 299 300 301 301 302 302 303 304 304 305 306 306 306 305 304 304 303 302 301 299 296 294 291 288 285 281 278 275 271 267 264 262 258 255 252 249 248
289 290 292 294 296 297 298 299 300 301 301 301 302 303 303 304 305 305 305 305 304 303 303 302 301 299 296 294 292 289 286 282 279 276 272 268 265 263 260 257 254 251 248
289 290 292 293 295 296 297 299 300 300 300 301 301 302 303 304 304 304 304 304 303 302 302 301 299 298 296 293 291 289 286 283 280 276 272 269 266 263 260 258 255 253 250